Emporia, KS

4:40 PM CDT on September 21, 2017 (GMT -0500)
Emporia Municipal

Weather History for KEMP - July, 2013

Change the Weather History Date:

Monday, July 15, 2013

  Actual Average Record
Temperature  
Mean Temperature 75 °F 79 °F  
Max Temperature 91 °F 90 °F 104 °F (2000)
Min Temperature 59 °F 69 °F 52 °F (2014)
Degree Days  
Heating Degree Days 0 0  
Month to date heating degree days 0 0  
Since 1 June heating degree days 12 8  
Since 1 July heating degree days 0 0  
Cooling Degree Days 10 14  
Month to date cooling degree days 198 200  
Year to date cooling degree days 613 582  
Since 1 June cooling degree days 497 463  
Growing Degree Days 26 (Base 50)    
Moisture  
Dew Point 63 °F    
Average Humidity 66    
Maximum Humidity 93    
Minimum Humidity 38    
Precipitation  
Precipitation 0.07 in 0.16 in 2.01 in (2010)
Month to date precipitation 0.48 2.56  
Year to date precipitation 14.46 21.08  
Sea Level Pressure  
Sea Level Pressure 30.12 in    
Wind  
Wind Speed 7 mph (ESE)    
Max Wind Speed 30 mph    
Max Gust Speed 37 mph    
Visibility 10 miles    
Events Rain    
T = Trace of Precipitation, MM = Missing Value Source: NWS Daily Summary

Daily Weather History Graph

Daily Weather History Graph

Search for Another Location

Airport or City:

Trip Planner

Search our weather history database for the weather conditions in past years. The results will help you decide how hot, cold, wet, or windy it might be!

Date:

Astronomy

Jul. 15, 2013 Rise Set
Actual Time 6:13 AM CDT 8:47 PM CDT
Civil Twilight 5:42 AM CDT 9:18 PM CDT
Nautical Twilight 5:04 AM CDT 9:56 PM CDT
Astronomical Twilight 4:21 AM CDT 10:38 PM CDT
Moon 1:27 PM CDT (7/15) 12:07 AM CDT (7/15)
Length of Visible Light 15h 35m
Length of Day
14h 34m
Waxing Crescent, 45% of the Moon is Illuminated
Jul 15
Waxing Crescent
Jul 15
First Quarter
Jul 22
Full
Jul 29
Last Quarter
Aug 6
New

Hourly Weather History & Observations

Time (CDT) Temp. Heat Index Dew Point Humidity Pressure Visibility Wind Dir Wind Speed Gust Speed Precip Events Conditions
12:53 AM 69.1 °F - 57.9 °F 68% 30.09 in 10.0 mi ENE 5.8 mph - N/A   Clear
1:53 AM 68.0 °F - 57.9 °F 70% 30.08 in 10.0 mi NE 4.6 mph - N/A   Partly Cloudy
2:53 AM 66.0 °F - 57.9 °F 75% 30.08 in 10.0 mi NE 6.9 mph - N/A   Clear
3:53 AM 64.9 °F - 59.0 °F 81% 30.09 in 10.0 mi Calm Calm - N/A   Clear
4:53 AM 64.0 °F - 59.0 °F 84% 30.10 in 10.0 mi Calm Calm - N/A   Clear
5:53 AM 63.0 °F - 59.0 °F 87% 30.12 in 10.0 mi Calm Calm - N/A   Clear
6:53 AM 63.0 °F - 60.1 °F 90% 30.13 in 8.0 mi Calm Calm - N/A   Clear
7:53 AM 69.1 °F - 62.1 °F 78% 30.14 in 10.0 mi East 3.5 mph - N/A   Clear
8:53 AM 73.9 °F - 63.0 °F 68% 30.15 in 10.0 mi East 4.6 mph - N/A   Clear
9:53 AM 80.1 °F 81.5 °F 63.0 °F 56% 30.14 in 10.0 mi East 8.1 mph - N/A   Clear
10:53 AM 82.0 °F 83.4 °F 64.0 °F 54% 30.15 in 10.0 mi East 5.8 mph - N/A   Clear
11:53 AM 82.0 °F 83.4 °F 64.0 °F 54% 30.14 in 10.0 mi ESE 6.9 mph - N/A   Overcast
12:53 PM 84.0 °F 84.4 °F 61.0 °F 46% 30.13 in 10.0 mi ESE 11.5 mph 20.7 mph N/A   Mostly Cloudy
1:53 PM 89.1 °F 89.0 °F 61.0 °F 39% 30.11 in 10.0 mi East 18.4 mph 25.3 mph N/A   Scattered Clouds
2:53 PM 89.1 °F 89.3 °F 62.1 °F 40% 30.09 in 10.0 mi East 17.3 mph 23.0 mph N/A   Mostly Cloudy
3:53 PM 84.9 °F 85.4 °F 62.1 °F 46% 30.09 in 10.0 mi East 13.8 mph 23.0 mph N/A   Mostly Cloudy
4:28 PM 73.4 °F - 64.4 °F 73% 30.13 in 2.5 mi SSW 10.4 mph 36.8 mph 0.06 in Rain Heavy Rain
4:39 PM 75.2 °F - 69.8 °F 83% 30.12 in 10.0 mi South 3.5 mph - 0.06 in Rain Light Rain
4:53 PM 79.0 °F - 69.1 °F 72% 30.11 in 10.0 mi SE 9.2 mph - 0.07 in Rain Light Rain
5:53 PM 82.0 °F 83.8 °F 64.9 °F 56% 30.10 in 10.0 mi East 13.8 mph - 0.00 in   Clear
6:53 PM 79.0 °F - 64.0 °F 60% 30.11 in 10.0 mi East 8.1 mph - N/A   Clear
7:53 PM 79.0 °F - 64.9 °F 62% 30.12 in 10.0 mi ESE 5.8 mph - N/A   Clear
8:53 PM 75.0 °F - 66.0 °F 73% 30.12 in 10.0 mi SSE 4.6 mph - N/A   Clear
9:53 PM 73.0 °F - 66.0 °F 79% 30.15 in 10.0 mi SSE 4.6 mph - N/A   Clear
10:53 PM 73.0 °F - 64.0 °F 73% 30.17 in 10.0 mi SSW 3.5 mph - N/A   Mostly Cloudy
11:53 PM 69.1 °F - 63.0 °F 81% 30.18 in 10.0 mi SW 4.6 mph - N/A   Clear